{"data":{"norad_id":55489,"intl_designator":"2023-015AS","name":"STARLINK-5371","alt_names":[],"object_type":"PAYLOAD","status":"ACTIVE","operator":null,"country":"US","launch_date":"2023-02-02","launch_site_code":"AFETR","launch_vehicle":null,"mission":null,"orbit_class":"UNKNOWN","rcs_meters":null,"size_class":null,"mass_kg":null,"dimensions":null,"purposes":["comms"],"wikipedia_slug":null,"has_3d_model":false,"image_url":null,"decayed_at":null,"tle_current":{"epoch":"2026-05-25T01:21:27.476064Z","epoch_age_seconds":73298,"freshness":"FRESH","line1":"1 55489U 23015AS  26145.05656801  .00000904  00000+0  42382-4 0  9996","line2":"2 55489  43.0045 268.5384 0000875 284.8623  75.2132 15.27574145182279","mean_motion":15.27574145,"eccentricity":8.75e-5,"inclination_deg":43.0045,"raan_deg":268.5384,"arg_perigee_deg":284.8623,"mean_anomaly_deg":75.2132,"bstar":4.2382e-5,"rev_number":18227,"period_min":94.26711002627,"perigee_km":482.46627275452,"apogee_km":483.66698338943,"semimajor_km":6861.203628072,"source":"CELESTRAK","updated_at":"2026-05-25T13:38:17.810677Z"}}}